Location: San Vito
(41.8833°N, 12.9833°E)
Time: 08:20:59
(UTC+00:00)

MOS 1-B - Pass Details

Date: 17 November 2019
Orbit: 905 x 913 km, 99.4° (Epoch: 08 December)

Event Time Altitude Azimuth Distance (km) Brightness Sun altitude
Rises 04:35:12 0° 12° (NNE) 3,552 7.5 -15.7°
Reaches altitude 10° 04:37:37 10° 10° (N) 2,605 6.7 -15.3°
Maximum altitude 04:43:24 70° 288° (WNW) 967 4.3 -14.2°
Drops below altitude 10° 04:49:07 10° 206° (SSW) 2,583 6.6 -13.2°
Sets 04:51:31 0° 204° (SSW) 3,520 7.3 -12.7°
